Overview Statistics Trail Chart Weather Telemetry Raw packets
 

This is the latest recevied weather packets stored in our database for station/object KD4EG. If no packets are shown the sender has not sent any weather packets the latest 10 day(s).

<< 41 42 43 44 45 46 47 >>
Time Temp. Humidity Pressure Rain* Wind** Luminosity Snow
1788367517 34.44° C 49% 1021.8 hPa 0 mm - 672 W/m² -
1788367216 34.44° C 47% 1021.6 hPa 0 mm - 626 W/m² -
1788366912 34.44° C 46% 1021.7 hPa 0 mm - 603 W/m² -
1788366610 33.89° C 48% 1022.2 hPa 0 mm - 603 W/m² -
1788366310 33.89° C 52% 1021.9 hPa 0 mm - 638 W/m² -
1788366005 33.89° C 52% 1022.3 hPa 0 mm - 663 W/m² -
1788365700 33.89° C 51% 1022.2 hPa 0 mm - 651 W/m² -
1788365395 33.33° C 56% 1022.3 hPa 0 mm - 620 W/m² -
1788365091 32.78° C 57% 1022.4 hPa 0 mm - 653 W/m² -
1788364789 32.78° C 60% 1022.4 hPa 0 mm - 672 W/m² -
1788364484 32.78° C 58% 1022.5 hPa 0 mm - 691 W/m² -
1788364178 32.78° C 60% 1022.4 hPa 0 mm - 678 W/m² -
1788363874 32.22° C 60% 1022.6 hPa 0 mm - 698 W/m² -
1788363573 31.67° C 62% 1022.7 hPa 0 mm - 730 W/m² -
1788363272 31.67° C 62% 1022.7 hPa 0 mm - 726 W/m² -
1788362968 31.67° C 62% 1022.8 hPa 0 mm - 715 W/m² -
1788362664 31.67° C 63% 1022.7 hPa 0 mm - 681 W/m² -
1788362359 31.67° C 64% 1022.9 hPa 0 mm - 651 W/m² -
1788362054 31.11° C 64% 1023 hPa 0 mm - 678 W/m² -
1788361749 31.11° C 64% 1022.9 hPa 0 mm - 721 W/m² -
1788361445 30.56° C 65% 1022.8 hPa 0 mm - 615 W/m² -
1788361144 30.56° C 66% 1022.8 hPa 0 mm - 577 W/m² -
1788360840 30.56° C 67% 1022.5 hPa 0 mm - 629 W/m² -
1788360535 30° C 68% 1022.8 hPa 0 mm - 587 W/m² -
1788360231 29.44° C 70% 1022.9 hPa 0 mm - 547 W/m² -

* Rain latest hour (hover to see other rain measurements)
** Current wind speed in m/s (hover to see current wind gust speed)